When you browse on this site, cookies collect data to enhance your experience and personalize the content and advertising you see.
Visit our Privacy Policy to learn more. By continuing to use the site, you agree to this use of cookies and data.
  • In Hungary
  • List of Countries
  • For 7 days
  • Water Temperature
  • Satellite Maps
  • Weather Map
  • News
  • Weather Widgets
  • user-avatar
    Login

    Hourly Weather Gomovo

    Today, 14 December, Friday

    Time Temperature Precipitation Wind Pressure Humidity
    00:00 -4°C° 0.1 mm 3 mps 748 mmHg 88%
    01:00 -4°C° 0.1 mm 3 mps 748 mmHg 88%
    02:00 -3°C° 0 mm 2 mps 748 mmHg 90%
    03:00 -3°C° 0.1 mm 2 mps 748 mmHg 89%
    04:00 -4°C° 0.1 mm 3 mps 748 mmHg 89%
    05:00 -4°C° 0.1 mm 3 mps 749 mmHg 89%
    06:00 -4°C° 0 mm 3 mps 749 mmHg 89%
    07:00 -4°C° 0 mm 3 mps 749 mmHg 89%
    08:00 -4°C° 0 mm 3 mps 749 mmHg 89%
    09:00 -4°C° 0 mm 3 mps 749 mmHg 89%
    10:00 -4°C° 0 mm 3 mps 749 mmHg 88%
    11:00 -4°C° 0 mm 3 mps 750 mmHg 87%
    12:00 -2°C° 0 mm 3 mps 750 mmHg 87%
    13:00 -2°C° 0 mm 3 mps 750 mmHg 87%
    14:00 -2°C° 0 mm 3 mps 750 mmHg 87%
    15:00 -4°C° 0 mm 3 mps 750 mmHg 88%
    16:00 -3°C° 0 mm 2 mps 751 mmHg 90%
    17:00 -4°C° 0 mm 2 mps 751 mmHg 92%
    18:00 -4°C° 0 mm 2 mps 751 mmHg 93%
    19:00 -5°C° 0 mm 2 mps 751 mmHg 94%
    20:00 -5°C° 0 mm 2 mps 751 mmHg 94%
    21:00 -5°C° 0 mm 2 mps 751 mmHg 93%
    22:00 -5°C° 0 mm 2 mps 751 mmHg 92%
    23:00 -5°C° 0 mm 2 mps 752 mmHg 91%

    Tomorrow, 15 December, Saturday

    Time Temperature Precipitation Wind Pressure Humidity
    00:00 -5°C° 0 mm 2 mps 752 mmHg 91%
    01:00 -5°C° 0 mm 2 mps 752 mmHg 91%
    02:00 -5°C° 0 mm 2 mps 752 mmHg 91%
    03:00 -5°C° 0 mm 2 mps 752 mmHg 92%
    04:00 -5°C° 0 mm 2 mps 753 mmHg 92%
    05:00 -6°C° 0 mm 2 mps 753 mmHg 93%
    06:00 -6°C° 0 mm 2 mps 753 mmHg 93%
    07:00 -6°C° 0 mm 2 mps 753 mmHg 94%
    08:00 -6°C° 0 mm 2 mps 753 mmHg 94%
    09:00 -6°C° 0 mm 2 mps 754 mmHg 92%
    10:00 -6°C° 0 mm 2 mps 754 mmHg 91%
    11:00 -6°C° 0 mm 2 mps 754 mmHg 90%
    12:00 -3°C° 0 mm 1 mps 754 mmHg 89%
    13:00 -3°C° 0 mm 1 mps 754 mmHg 89%
    14:00 -3°C° 0 mm 1 mps 755 mmHg 89%
    15:00 -3°C° 0 mm 1 mps 755 mmHg 90%
    16:00 -4°C° 0 mm 1 mps 755 mmHg 92%
    17:00 -4°C° 0 mm 1 mps 755 mmHg 93%
    18:00 -4°C° 0 mm 1 mps 755 mmHg 93%
    19:00 -4°C° 0 mm 1 mps 755 mmHg 93%
    20:00 -6°C° 0 mm 1 mps 755 mmHg 94%
    21:00 -4°C° 0 mm 1 mps 756 mmHg 93%
    22:00 -4°C° 0 mm 1 mps 756 mmHg 93%
    23:00 -4°C° 0 mm 1 mps 756 mmHg 92%

    Day after tomorrow, 16 December, Sunday

    Time Temperature Precipitation Wind Pressure Humidity
    00:00 -4°C° 0 mm 1 mps 756 mmHg 92%
    01:00 -4°C° 0 mm 1 mps 756 mmHg 92%
    02:00 -4°C° 0 mm 1 mps 756 mmHg 92%
    03:00 -4°C° 0 mm 1 mps 756 mmHg 92%
    04:00 -4°C° 0 mm 1 mps 756 mmHg 92%
    05:00 -4°C° 0 mm 1 mps 756 mmHg 92%
    06:00 -4°C° 0 mm 1 mps 756 mmHg 92%
    07:00 -4°C° 0 mm 1 mps 756 mmHg 92%
    08:00 -6°C° 0 mm 1 mps 756 mmHg 93%
    09:00 -4°C° 0 mm 1 mps 756 mmHg 91%
    10:00 -4°C° 0 mm 1 mps 756 mmHg 90%
    11:00 -4°C° 0 mm 1 mps 756 mmHg 88%
    12:00 -4°C° 0 mm 1 mps 756 mmHg 88%
    13:00 -4°C° 0 mm 1 mps 756 mmHg 88%
    14:00 -4°C° 0 mm 1 mps 756 mmHg 88%
    15:00 -6°C° 0 mm 2 mps 756 mmHg 91%
    16:00 -7°C° 0 mm 2 mps 756 mmHg 93%
    17:00 -7°C° 0 mm 2 mps 755 mmHg 95%
    18:00 -7°C° 0 mm 2 mps 755 mmHg 94%
    19:00 -7°C° 0 mm 2 mps 755 mmHg 93%
    20:00 -8°C° 0 mm 3 mps 755 mmHg 92%
    21:00 -9°C° 0 mm 3 mps 755 mmHg 93%
    22:00 -9°C° 0 mm 3 mps 755 mmHg 93%
    23:00 -10°C° 0 mm 3 mps 755 mmHg 93%

    17 December, Monday

    Time Temperature Precipitation Wind Pressure Humidity
    00:00 -10°C° 0 mm 3 mps 754 mmHg 91%
    01:00 -12°C° 0 mm 3 mps 754 mmHg 90%
    02:00 -12°C° 0 mm 3 mps 754 mmHg 88%
    03:00 -13°C° 0 mm 3 mps 754 mmHg 86%
    04:00 -13°C° 0 mm 3 mps 753 mmHg 84%
    05:00 -13°C° 0 mm 3 mps 753 mmHg 83%
    06:00 -13°C° 0 mm 3 mps 753 mmHg 82%
    07:00 -14°C° 0 mm 3 mps 753 mmHg 82%
    08:00 -14°C° 0 mm 3 mps 753 mmHg 81%
    09:00 -13°C° 0 mm 3 mps 753 mmHg 80%
    10:00 -13°C° 0 mm 3 mps 753 mmHg 79%
    11:00 -13°C° 0 mm 3 mps 752 mmHg 78%
    12:00 -13°C° 0 mm 3 mps 752 mmHg 79%
    13:00 -12°C° 0 mm 3 mps 752 mmHg 80%
    14:00 -12°C° 0 mm 3 mps 752 mmHg 81%
    15:00 -13°C° 0 mm 3 mps 752 mmHg 83%
    16:00 -13°C° 0 mm 3 mps 752 mmHg 85%
    17:00 -14°C° 0 mm 3 mps 752 mmHg 87%
    18:00 -14°C° 0 mm 3 mps 751 mmHg 88%
    19:00 -14°C° 0 mm 3 mps 751 mmHg 88%
    20:00 -14°C° 0 mm 3 mps 751 mmHg 89%
    21:00 -13°C° 0 mm 3 mps 751 mmHg 89%
    22:00 -13°C° 0 mm 3 mps 752 mmHg 89%
    23:00 -13°C° 0 mm 3 mps 752 mmHg 89%

    18 December, Tuesday

    Time Temperature Precipitation Wind Pressure Humidity
    00:00 -13°C° 0.1 mm 3 mps 752 mmHg 90%
    01:00 -13°C° 0.1 mm 3 mps 752 mmHg 90%
    02:00 -13°C° 0.1 mm 3 mps 751 mmHg 91%
    03:00 -13°C° 0.2 mm 3 mps 751 mmHg 91%
    04:00 -13°C° 0.2 mm 3 mps 751 mmHg 91%
    05:00 -10°C° 0.2 mm 2 mps 751 mmHg 91%
    06:00 -10°C° 0 mm 2 mps 751 mmHg 91%
    07:00 -10°C° 0 mm 2 mps 751 mmHg 91%
    08:00 -10°C° 0 mm 2 mps 751 mmHg 92%
    09:00 -9°C° 0 mm 2 mps 751 mmHg 91%
    10:00 -9°C° 0 mm 2 mps 751 mmHg 90%
    11:00 -8°C° 0 mm 2 mps 751 mmHg 90%
    12:00 -8°C° 0 mm 2 mps 751 mmHg 90%
    13:00 -8°C° 0 mm 2 mps 751 mmHg 90%
    14:00 -7°C° 0 mm 2 mps 751 mmHg 90%
    15:00 -7°C° 0 mm 2 mps 751 mmHg 91%
    16:00 -7°C° 0 mm 2 mps 751 mmHg 92%
    17:00 -7°C° 0 mm 2 mps 751 mmHg 93%
    18:00 -7°C° 0 mm 2 mps 751 mmHg 93%
    19:00 -7°C° 0 mm 2 mps 751 mmHg 94%
    20:00 -7°C° 0 mm 2 mps 751 mmHg 94%
    21:00 -6°C° 0 mm 2 mps 752 mmHg 94%
    22:00 -6°C° 0 mm 2 mps 752 mmHg 94%
    23:00 -6°C° 0 mm 2 mps 752 mmHg 94%

    19 December, Wednesday

    Time Temperature Precipitation Wind Pressure Humidity
    00:00 -6°C° 0 mm 2 mps 752 mmHg 95%
    01:00 -6°C° 0 mm 2 mps 752 mmHg 95%
    02:00 -6°C° 0 mm 2 mps 752 mmHg 95%
    03:00 -6°C° 0 mm 2 mps 752 mmHg 95%
    04:00 -5°C° 0 mm 2 mps 752 mmHg 95%
    05:00 -5°C° 0 mm 2 mps 752 mmHg 95%
    06:00 -5°C° 0 mm 2 mps 752 mmHg 95%
    07:00 -5°C° 0 mm 2 mps 752 mmHg 95%
    08:00 -5°C° 0 mm 2 mps 752 mmHg 95%
    09:00 -5°C° 0 mm 2 mps 752 mmHg 94%
    10:00 -6°C° 0 mm 3 mps 752 mmHg 93%
    11:00 -6°C° 0 mm 3 mps 752 mmHg 92%
    12:00 -6°C° 0 mm 3 mps 752 mmHg 91%
    13:00 -5°C° 0 mm 2 mps 752 mmHg 91%
    14:00 -5°C° 0 mm 2 mps 752 mmHg 90%
    15:00 -6°C° 0 mm 2 mps 752 mmHg 91%
    16:00 -6°C° 0 mm 2 mps 752 mmHg 91%
    17:00 -7°C° 0 mm 3 mps 752 mmHg 92%
    18:00 -8°C° 0 mm 3 mps 751 mmHg 92%
    19:00 -8°C° 0 mm 3 mps 751 mmHg 92%
    20:00 -9°C° 0 mm 3 mps 751 mmHg 92%
    21:00 -9°C° 0 mm 3 mps 751 mmHg 91%
    22:00 -9°C° 0 mm 3 mps 751 mmHg 90%
    23:00 -9°C° 0 mm 3 mps 751 mmHg 90%
    Show more